Location: Grantsboro
(35.1404°N, 76.8424°W)
Time: 09:14:17
(UTC+00:00)

SJ-12 - Pass Details

Date: 18 January 2020
Orbit: 569 x 585 km, 97.6° (Epoch: 16 February)

Event Time Altitude Azimuth Distance (km) Brightness Sun altitude
Rises 10:18:13 0° 11° (N) 2,776 7.4 -23.5°
Reaches altitude 10° 10:20:22 10° 11° (N) 1,875 6.5 -23.1°
Maximum altitude 10:24:25 86° 286° (WNW) 576 3.7 -22.2°
Drops below altitude 10° 10:28:29 10° 194° (SSW) 1,867 6.5 -21.4°
Sets 10:30:37 0° 194° (SSW) 2,763 7.4 -21.0°
